Volver al catálogo

STARLINK-36245

ActivoComunicacionesVLEO
NORAD 68328·PAYLOAD·🇺🇸 United States

Lanzado Mar 22, 2026 desde Cape Canaveral Space Force Station

Loading…

Próximos Pases (próximas 24 horas)

TLE

ActualizadoSource: CelesTrak SupGP

Época: Sep 15, 2026, 03:58 UTC

1 68328C 26059H   26258.16576389 -.00018283  00000+0 -54023-3 0  2585
2 68328  53.1587 186.4588 0001309  83.8566 123.2049 15.34396365    14

Sigue STARLINK-36245 en tiempo real con AllMySat

Download on the App Store